Weather History for Hollywood, FL

Change the Weather History Date:

Wednesday, January 16, 2013

  Actual Average (KFLL) Record (KFLL)
Temperature  
Mean Temperature 72 °F 69 °F  
Max Temperature 80 °F 76 °F 85 °F (1954)
Min Temperature 63 °F 61 °F 36 °F (1921)
Degree Days  
Heating Degree Days 0 2  
Month to date heating degree days 32  
Since 1 July heating degree days 64  
Cooling Degree Days 6 5  
Month to date cooling degree days 89  
Year to date cooling degree days 89  
Growing Degree Days 22 (Base 50)    
Moisture  
Dew Point 66 °F    
Average Humidity 77    
Maximum Humidity 93    
Minimum Humidity 61    
Precipitation  
Precipitation 0.00 in 0.07 in 3.81 in (1922)
Month to date precipitation 1.30  
Year to date precipitation 1.30  
Snow  
Snow 0.00 in - - ()
Month to date snowfall  
Since 1 July snowfall  
Snow Depth -    
Sea Level Pressure  
Sea Level Pressure 30.08 in    
Wind  
Wind Speed 5 mph (SE)    
Max Wind Speed 13 mph    
Max Gust Speed 17 mph    
Visibility 10 miles    
Events Rain    
T = Trace of Precipitation, MM = Missing Value Source: NWS Daily Summary

Daily Weather History Graph

Daily Weather History Graph

Search for Another Location

Airport:

Trip Planner

Search our weather history database for the weather conditions in past years. The results will help you decide how hot, cold, wet, or windy it might be!

Date:

Astronomy

Jan. 16, 2013 Rise Set
Actual Time 7:09 AM EST 5:52 PM EST
Civil Twilight 6:44 AM EST 6:17 PM EST
Nautical Twilight 6:16 AM EST 6:45 PM EST
Astronomical Twilight 5:48 AM EST 7:13 PM EST
Moon 10:21 AM EST (1/16) 11:02 PM EST (1/16)
Length of Visible Light 11h 32m
Length of Day
10h 42m
Waxing Crescent, 28% of the Moon is Illuminated
Jan 16
Waxing Crescent
Jan 18
First Quarter
Jan 26
Full
Feb 3
Last Quarter
Feb 10
New

Hourly Weather History & Observations

Time (EST) Temp. Heat Index Dew Point Humidity Pressure Visibility Wind Dir Wind Speed Gust Speed Precip Events Conditions
1:53 AM 64.0 °F - 61.0 °F 90% 30.07 in 10.0 mi Calm Calm - N/A   Clear
3:53 AM 63.0 °F - 61.0 °F 93% 30.07 in 10.0 mi Calm Calm - N/A   Clear
4:53 AM 64.0 °F - 61.0 °F 90% 30.07 in 10.0 mi Calm Calm - N/A   Partly Cloudy
5:53 AM 63.0 °F - 61.0 °F 93% 30.08 in 10.0 mi Calm Calm - N/A   Clear
6:53 AM 63.0 °F - 61.0 °F 93% 30.09 in 10.0 mi Calm Calm - N/A   Partly Cloudy
7:53 AM 64.9 °F - 63.0 °F 93% 30.11 in 10.0 mi Calm Calm - N/A   Mostly Cloudy
8:53 AM 72.0 °F - 70.0 °F 93% 30.12 in 10.0 mi Calm Calm - N/A   Mostly Cloudy
9:53 AM 78.1 °F - 66.0 °F 66% 30.13 in 10.0 mi SE 11.5 mph - N/A   Scattered Clouds
10:53 AM 80.1 °F 82.1 °F 66.0 °F 62% 30.12 in 10.0 mi SE 10.4 mph - N/A   Partly Cloudy
11:44 AM 78.8 °F - 66.2 °F 65% 30.09 in 10.0 mi ESE 12.7 mph 17.3 mph N/A   Overcast
11:53 AM 79.0 °F - 66.9 °F 66% 30.09 in 10.0 mi ESE 12.7 mph - N/A   Overcast
12:51 PM 80.6 °F 82.7 °F 66.2 °F 61% 30.07 in 10.0 mi ESE 12.7 mph - N/A   Overcast
12:53 PM 80.1 °F 82.3 °F 66.9 °F 64% 30.06 in 10.0 mi SE 12.7 mph - N/A   Mostly Cloudy
1:00 PM 78.8 °F - 66.2 °F 65% 30.06 in 10.0 mi ESE 12.7 mph - N/A   Mostly Cloudy
1:53 PM 79.0 °F - 66.9 °F 66% 30.05 in 10.0 mi ESE 12.7 mph - N/A   Overcast
2:53 PM 78.1 °F - 66.9 °F 68% 30.04 in 10.0 mi SSE 11.5 mph - N/A   Overcast
3:17 PM 78.8 °F - 64.4 °F 61% 30.05 in 10.0 mi South 8.1 mph - N/A   Overcast
3:53 PM 78.1 °F - 64.9 °F 64% 30.05 in 10.0 mi SE 11.5 mph - N/A   Mostly Cloudy
4:01 PM 78.8 °F - 66.2 °F 65% 30.05 in 10.0 mi SE 10.4 mph - N/A   Scattered Clouds
4:53 PM 78.1 °F - 66.9 °F 68% 30.06 in 10.0 mi SE 9.2 mph - N/A   Partly Cloudy
5:53 PM 75.0 °F - 66.0 °F 73% 30.07 in 10.0 mi SE 6.9 mph - N/A   Clear
6:53 PM 73.9 °F - 66.9 °F 79% 30.08 in 10.0 mi SE 4.6 mph - N/A   Partly Cloudy
7:53 PM 73.0 °F - 66.9 °F 81% 30.09 in 10.0 mi Calm Calm - N/A   Clear
8:53 PM 71.1 °F - 66.9 °F 87% 30.09 in 10.0 mi Calm Calm - N/A   Clear
9:53 PM 72.0 °F - 68.0 °F 87% 30.09 in 10.0 mi SE 3.5 mph - 0.00 in Rain Light Rain
10:53 PM 72.0 °F - 68.0 °F 87% 30.08 in 10.0 mi East 4.6 mph - 0.00 in   Mostly Cloudy
11:53 PM 71.1 °F - 68.0 °F 90% 30.07 in 10.0 mi Calm Calm - N/A   Scattered Clouds